User: anonymous   Login
Location: Barrio Las Umbrías
(40.4173°N, 4.8685°W)
Time: 06:56:55
(UTC+00:00)
Language:

H-2A R/B - Orbit

View from above orbital plane
View from above orbital plane
View from above satellite
View from above satellite

Ground track
Ground track

The orbit data is extracted from the following two-line orbital elements,

1 28932U 06002B   22339.86653112  .00002260  00000-0  20240-3 0  9994
2 28932  98.2706  31.5954 0084207 249.0204 110.1990 14.94301801915633
Epoch (UTC): 05 December 2022 20:47:48
Eccentricity: 0.0084207
inclination: 98.2706°
perigee height: 526 km
apogee height: 643 km
right ascension of ascending node: 31.5954°
argument of perigee: 249.0204°
revolutions per day: 14.94301801
mean anomaly at epoch: 110.1990°
orbit number at epoch: 91563

The dashed part of the orbit path shows where the satellite is in the earth's shadow,  

DLR